| time (UTC) | temp F | wind direction | speed knots | gust knots | rain 1hr in | rain 24hr in | rain mn in | humidity % | barometer mb |
| 20260509094542 | 45 | 274 | 2.6 | 6.1 | 0.00 | 0.00 | 0.00 | 72 | 1020.8 |
| 20260509093039 | 45 | 302 | 2.6 | 6.1 | 0.00 | 0.00 | 0.00 | 71 | 1020.7 |
| 20260509091536 | 45 | 309 | 1.7 | 3.5 | 0.00 | 0.00 | 0.00 | 71 | 1020.6 |
| 20260509090035 | 45 | 297 | 1.7 | 4.3 | 0.00 | 0.00 | 0.00 | 70 | 1020.6 |
| 20260509084536 | 45 | 288 | 1.7 | 3.5 | 0.00 | 0.00 | 0.00 | 70 | 1020.7 |
| 20260509083035 | 46 | 296 | 0.9 | 6.1 | 0.00 | 0.00 | 0.00 | 69 | 1020.6 |
| 20260509081529 | 47 | 267 | 0.9 | 5.2 | 0.00 | 0.00 | 0.00 | 67 | 1020.6 |
| 20260509080034 | 47 | 314 | 1.7 | 4.3 | 0.00 | 0.00 | 0.00 | 66 | 1020.5 |
| 20260509074521 | 47 | 314 | 0.9 | 2.6 | 0.00 | 0.00 | 0.00 | 66 | 1020.4 |
| 20260509073019 | 47 | 311 | 0.9 | 3.5 | 0.00 | 0.00 | 0.00 | 67 | 1020.3 |
| 20260509071517 | 47 | 234 | 0.9 | 6.1 | 0.00 | 0.00 | 0.00 | 68 | 1020.1 |
| 20260509070015 | 48 | 302 | 1.7 | 4.3 | 0.00 | 0.00 | 0.00 | 65 | 1020.0 |
| 20260509064509 | 49 | 267 | 0.0 | 3.5 | 0.00 | 0.00 | 0.00 | 63 | 1020.0 |
| 20260509063005 | 50 | 300 | 0.9 | 2.6 | 0.00 | 0.00 | 0.00 | 62 | 1019.9 |
| 20260509061502 | 52 | 213 | 0.0 | 3.5 | 0.00 | 0.00 | 0.00 | 57 | 1019.7 |
| 20260509060001 | 55 | 114 | 0.0 | 3.5 | 0.00 | 0.00 | 0.00 | 51 | 1019.6 |
| 20260509054603 | 55 | 116 | 0.9 | 3.5 | 0.00 | 0.00 | 0.00 | 51 | 1019.6 |
| 20260509053059 | 54 | 172 | 0.0 | 2.6 | 0.00 | 0.00 | 0.00 | 53 | 1019.6 |
| 20260509051559 | 52 | 327 | 0.0 | 0.9 | 0.00 | 0.00 | 0.00 | 56 | 1019.7 |
| 20260509050123 | 55 | 325 | 0.0 | 4.3 | 0.00 | 0.00 | 0.00 | 51 | 1019.4 |
| 20260509044600 | 57 | 123 | 0.9 | 3.5 | 0.00 | 0.00 | 0.00 | 47 | 1019.1 |
| 20260509043050 | 58 | 109 | 2.6 | 7.0 | 0.00 | 0.00 | 0.00 | 46 | 1019.0 |
| 20260509041549 | 59 | 63 | 2.6 | 9.6 | 0.00 | 0.00 | 0.00 | 44 | 1019.0 |
| 20260509040048 | 59 | 87 | 7.0 | 12.2 | 0.00 | 0.00 | 0.00 | 42 | 1018.8 |
| 20260509034516 | 59 | 92 | 2.6 | 7.0 | 0.00 | 0.00 | 0.00 | 42 | 1018.7 |
| 20260509033014 | 60 | 130 | 0.9 | 4.3 | 0.00 | 0.00 | 0.00 | 41 | 1018.4 |
| 20260509031513 | 61 | 107 | 0.9 | 7.0 | 0.00 | 0.00 | 0.00 | 39 | 1018.1 |
| 20260509030013 | 62 | 151 | 1.7 | 6.1 | 0.00 | 0.00 | 0.00 | 39 | 1017.8 |
| 20260509024509 | 64 | 213 | 0.9 | 3.5 | 0.00 | 0.00 | 0.00 | 35 | 1017.6 |
| 20260509023011 | 64 | 126 | 0.0 | 4.3 | 0.00 | 0.00 | 0.00 | 35 | 1017.5 |
| 20260509021502 | 65 | 148 | 3.5 | 7.0 | 0.00 | 0.00 | 0.00 | 35 | 1017.5 |
| 20260509020003 | 66 | 161 | 1.7 | 7.0 | 0.00 | 0.00 | 0.00 | 35 | 1017.3 |
| 20260509014601 | 66 | 146 | 1.7 | 13.0 | 0.00 | 0.00 | 0.00 | 33 | 1017.2 |
| 20260509013103 | 67 | 57 | 4.3 | 13.9 | 0.00 | 0.00 | 0.00 | 30 | 1017.1 |
| 20260509011557 | 68 | 88 | 4.3 | 8.7 | 0.00 | 0.00 | 0.00 | 31 | 1017.0 |
| 20260509010056 | 68 | 139 | 6.1 | 11.3 | 0.00 | 0.00 | 0.00 | 30 | 1017.0 |
| 20260509004555 | 68 | 81 | 6.1 | 13.0 | 0.00 | 0.00 | 0.00 | 29 | 1016.9 |
| 20260509003104 | 69 | 125 | 7.8 | 13.0 | 0.00 | 0.00 | 0.00 | 30 | 1016.8 |
| 20260509001552 | 70 | 80 | 7.0 | 13.0 | 0.00 | 0.00 | 0.00 | 29 | 1016.6 |
| 20260508234550 | 69 | 90 | 5.2 | 14.8 | 0.00 | 0.00 | 0.00 | 37 | 1016.5 |
| 20260508233052 | 70 | 99 | 5.2 | 11.3 | 0.00 | 0.00 | 0.00 | 34 | 1016.5 |
| 20260508231547 | 70 | 76 | 3.5 | 11.3 | 0.00 | 0.00 | 0.00 | 34 | 1016.5 |
| 20260508230050 | 69 | 115 | 7.0 | 14.8 | 0.00 | 0.00 | 0.00 | 37 | 1016.6 |
| 20260508224545 | 69 | 44 | 5.2 | 9.6 | 0.00 | 0.00 | 0.00 | 33 | 1016.6 |
| 20260508223044 | 69 | 115 | 0.9 | 5.2 | 0.00 | 0.00 | 0.00 | 31 | 1016.7 |
| 20260508221609 | 67 | 161 | 3.5 | 7.0 | 0.00 | 0.00 | 0.00 | 36 | 1016.6 |
| 20260508220024 | 68 | 146 | 4.3 | 8.7 | 0.00 | 0.00 | 0.00 | 33 | 1016.5 |
| 20260508214522 | 67 | 128 | 0.0 | 2.6 | 0.00 | 0.00 | 0.00 | 37 | 1016.7 |
| 20260508213023 | 66 | 192 | 0.9 | 5.2 | 0.00 | 0.00 | 0.00 | 32 | 1016.6 |
| 20260508211518 | 66 | 186 | 1.7 | 4.3 | 0.00 | 0.00 | 0.00 | 35 | 1016.6 |
| 20260508210018 | 66 | 157 | 1.7 | 5.2 | 0.00 | 0.00 | 0.00 | 36 | 1016.7 |
| 20260508204518 | 66 | 155 | 0.9 | 4.3 | 0.00 | 0.00 | 0.00 | 35 | 1016.9 |
| 20260508203016 | 65 | 139 | 1.7 | 8.7 | 0.00 | 0.00 | 0.00 | 33 | 1017.0 |
| 20260508201519 | 66 | 162 | 3.5 | 7.0 | 0.00 | 0.00 | 0.00 | 32 | 1017.1 |
| 20260508200020 | 66 | 159 | 3.5 | 7.8 | 0.00 | 0.00 | 0.00 | 32 | 1017.1 |
| 20260508194513 | 66 | 150 | 2.6 | 7.0 | 0.00 | 0.00 | 0.00 | 33 | 1017.1 |
| 20260508193014 | 65 | 145 | 2.6 | 7.0 | 0.00 | 0.00 | 0.00 | 32 | 1017.3 |
| 20260508191504 | 65 | 127 | 0.9 | 7.0 | 0.00 | 0.00 | 0.00 | 32 | 1017.4 |
| 20260508190007 | 65 | 167 | 0.9 | 6.1 | 0.00 | 0.00 | 0.00 | 33 | 1017.5 |
| 20260508184506 | 64 | 138 | 2.6 | 7.8 | 0.00 | 0.00 | 0.00 | 31 | 1017.5 |
| 20260508183031 | 64 | 180 | 0.9 | 7.0 | 0.00 | 0.00 | 0.00 | 34 | 1017.4 |
| 20260508181547 | 64 | 179 | 2.6 | 7.8 | 0.00 | 0.00 | 0.00 | 33 | 1017.5 |
| 20260508180027 | 64 | 141 | 0.9 | 7.0 | 0.00 | 0.00 | 0.00 | 37 | 1017.5 |
| 20260508174524 | 64 | 121 | 3.5 | 7.0 | 0.00 | 0.00 | 0.00 | 47 | 1017.5 |
| 20260508173034 | 62 | 125 | 0.0 | 0.9 | 0.00 | 0.00 | 0.00 | 44 | 1017.4 |
| 20260508171524 | 59 | 140 | 0.9 | 3.5 | 0.00 | 0.00 | 0.00 | 55 | 1017.4 |
| 20260508170054 | 57 | 82 | 0.0 | 2.6 | 0.00 | 0.00 | 0.00 | 57 | 1017.5 |
| 20260508164557 | 57 | 324 | 0.9 | 3.5 | 0.00 | 0.00 | 0.00 | 59 | 1017.4 |
| 20260508163049 | 56 | 83 | 0.0 | 0.9 | 0.00 | 0.00 | 0.00 | 58 | 1017.5 |
| 20260508161549 | 52 | 135 | 0.9 | 4.3 | 0.00 | 0.00 | 0.00 | 62 | 1017.4 |
| 20260508160045 | 52 | 116 | 0.9 | 5.2 | 0.00 | 0.00 | 0.00 | 61 | 1017.3 |
| 20260508154543 | 53 | 162 | 0.0 | 2.6 | 0.00 | 0.00 | 0.00 | 56 | 1017.1 |
| 20260508153012 | 51 | 150 | 0.0 | 1.7 | 0.00 | 0.00 | 0.00 | 59 | 1017.3 |
| 20260508151511 | 51 | 142 | 0.0 | 2.6 | 0.00 | 0.00 | 0.00 | 60 | 1017.4 |
| 20260508150009 | 51 | 130 | 0.9 | 3.5 | 0.00 | 0.00 | 0.00 | 59 | 1017.3 |
| 20260508144513 | 50 | 96 | 0.9 | 2.6 | 0.00 | 0.00 | 0.00 | 54 | 1017.3 |
| 20260508143018 | 48 | 143 | 0.0 | 1.7 | 0.00 | 0.00 | 0.00 | 60 | 1017.3 |
| 20260508141509 | 45 | 142 | 0.0 | 0.9 | 0.00 | 0.00 | 0.00 | 65 | 1017.3 |
| 20260508140004 | 42 | 300 | 0.0 | 2.6 | 0.00 | 0.00 | 0.00 | 67 | 1017.4 |
| 20260508134501 | 38 | 285 | 0.0 | 1.7 | 0.00 | 0.00 | 0.00 | 70 | 1017.3 |
| 20260508133117 | 38 | 288 | 0.0 | 0.9 | 0.00 | 0.00 | 0.00 | 67 | 1017.2 |
| 20260508131558 | 38 | 325 | 0.0 | 1.7 | 0.00 | 0.00 | 0.00 | 65 | 1017.1 |
| 20260508130053 | 38 | 310 | 0.0 | 1.7 | 0.00 | 0.00 | 0.00 | 63 | 1017.1 |
| 20260508124550 | 39 | 207 | 0.0 | 1.7 | 0.00 | 0.00 | 0.00 | 58 | 1016.8 |
| 20260508123054 | 40 | 132 | 0.0 | 0.9 | 0.00 | 0.00 | 0.00 | 55 | 1016.7 |
| 20260508121551 | 41 | 215 | 0.0 | 0.9 | 0.00 | 0.00 | 0.00 | 52 | 1016.6 |
| 20260508120042 | 44 | 74 | 0.0 | 2.6 | 0.00 | 0.00 | 0.00 | 49 | 1016.7 |
| 20260508114540 | 43 | 271 | 1.7 | 3.5 | 0.00 | 0.00 | 0.00 | 50 | 1016.4 |
| 20260508113036 | 42 | 307 | 0.0 | 2.6 | 0.00 | 0.00 | 0.00 | 52 | 1016.4 |
| 20260508111534 | 43 | 288 | 0.0 | 2.6 | 0.00 | 0.00 | 0.00 | 52 | 1016.3 |
| 20260508110035 | 43 | 260 | 0.0 | 0.9 | 0.00 | 0.00 | 0.00 | 48 | 1016.4 |
| 20260508104527 | 45 | 259 | 0.9 | 2.6 | 0.00 | 0.00 | 0.00 | 47 | 1016.3 |
| 20260508103024 | 47 | 302 | 0.0 | 1.7 | 0.00 | 0.00 | 0.00 | 47 | 1016.2 |
| 20260508101523 | 46 | 302 | 0.9 | 4.3 | 0.00 | 0.00 | 0.00 | 50 | 1016.2 |
| 20260508100025 | 46 | 311 | 0.0 | 4.3 | 0.00 | 0.00 | 0.00 | 53 | 1016.2 |